Location: Piolenc
(44.1794°N, 4.7641°E)
Time: 03:32:17
(UTC+00:00)

Meteor PRIRODA - Pass Details

Date: 27 January 2021
Orbit: 490 x 509 km, 97.6° (Epoch: 27 February)

Event Time Altitude Azimuth Distance (km) Brightness Sun altitude
Rises 05:27:55 0° 7° (N) 2,577 7.2 -17.2°
Reaches altitude 10° 05:30:02 10° 2° (N) 1,691 6.2 -16.9°
Maximum altitude 05:33:33 51° 287° (WNW) 628 3.7 -16.2°
Drops below altitude 10° 05:37:04 10° 211° (SSW) 1,680 6.1 -15.6°
Sets 05:39:10 0° 206° (SSW) 2,559 7.1 -15.3°
